HK6LRQ-25 Weather Reports


time (UTC)temp
F
wind
direction
speed
knots
gust
knots
rain 1hr
in
rain 24hr
in
rain mn
in
humidity
%
barometer
mb
20260507160621 68 308 4.3 2.6 0.00 0.00 0.00 78 1015.0
20260507153620 67 308 4.3 2.6 0.00 0.00 0.00 73 1014.0
20260507150619 71 308 3.5 2.6 0.00 0.00 0.00 78 1015.0
20260507143617 64 308 3.5 2.6 0.00 0.00 0.00 78 1015.0
20260507140616 70 309 1.7 0.9 0.00 0.00 0.00 78 1016.0
20260507133615 60 309 1.7 0.9 0.00 0.00 0.00 79 1016.0
20260507130614 66 329 0.9 0.9 0.00 0.00 0.00 79 1016.0
20260507123614 55 329 0.9 0.9 0.00 0.00 0.00 80 1016.0
20260507120612 55 141 0.9 1.7 0.00 0.00 0.00 80 1015.0
20260507113611 55 117 1.7 1.7 0.00 0.00 0.00 80 1015.0
20260507110610 55 129 3.5 2.6 0.00 0.00 0.00 81 1015.0
20260507103609 55 129 3.5 2.6 0.00 0.00 0.00 82 1015.0
20260507100608 55 131 2.6 1.7 0.00 0.00 0.00 81 1015.0
20260507093607 55 131 2.6 1.7 0.00 0.00 0.00 82 1015.0
20260507090606 56 130 3.5 2.6 0.00 0.00 0.00 81 1015.0
20260507083605 56 130 3.5 2.6 0.00 0.00 0.00 83 1015.0
20260507080604 56 127 3.5 1.7 0.00 0.00 0.00 82 1015.0
20260507073603 56 127 3.5 1.7 0.00 0.00 0.00 84 1015.0
20260507070602 56 127 3.5 2.6 0.00 0.00 0.00 82 1015.0
20260507063600 56 127 3.5 2.6 0.00 0.00 0.00 85 1015.0
20260507060559 56 130 3.5 2.6 0.00 0.00 0.00 86 1016.0
20260507053558 56 129 3.5 2.6 0.00 0.00 0.00 86 1016.0
20260507050557 57 130 3.5 2.6 0.00 0.00 0.00 83 1016.0
20260507043556 57 130 3.5 2.6 0.00 0.00 0.00 86 1016.0
20260507040556 57 137 4.3 2.6 0.00 0.00 0.00 83 1016.0
20260507033554 58 137 4.3 2.6 0.00 0.00 0.00 86 1016.0
20260507030553 58 139 4.3 2.6 0.00 0.00 0.00 83 1016.0
20260507023552 59 139 4.3 2.6 0.00 0.00 0.00 87 1015.0
20260507020551 59 141 3.5 2.6 0.00 0.00 0.00 83 1015.0
20260507013550 60 141 3.5 2.6 0.00 0.00 0.00 86 1015.0
20260507010549 60 141 4.3 2.6 0.00 0.00 0.00 82 1014.0
20260507003548 61 141 4.3 2.6 0.00 0.00 0.00 87 1013.0
20260507000547 62 124 3.5 1.7 0.00 0.00 0.00 86 1012.0
20260506233546 68 124 3.5 1.7 0.00 0.00 0.00 86 1012.0
20260506230545 63 178 0.9 0.9 0.00 0.00 0.00 83 1011.0
20260506223544 69 178 0.9 0.9 0.00 0.00 0.00 83 1010.0
20260506220543 69 301 0.0 1.7 0.00 0.00 0.00 79 1009.0
20260506213542 70 301 0.0 1.7 0.00 0.00 0.00 80 1009.0
20260506210541 70 293 1.7 1.7 0.00 0.00 0.00 75 1009.0
20260506203540 70 293 1.7 1.7 0.00 0.00 0.00 72 1009.0
20260506200539 70 288 1.7 1.7 0.00 0.00 0.00 75 1009.0
20260506193538 71 288 1.7 1.7 0.00 0.00 0.00 75 1009.0
20260506190537 77 298 1.7 1.7 0.00 0.00 0.00 75 1010.0
20260506183536 71 298 1.7 1.7 0.00 0.00 0.00 70 1010.0
20260506180535 70 307 3.5 2.6 0.00 0.00 0.00 78 1011.0
20260506173534 70 307 2.6 1.7 0.00 0.00 0.00 71 1011.0
20260506170533 71 309 3.5 1.7 0.00 0.00 0.00 79 1013.0
20260506163532 71 309 3.5 1.7 0.00 0.00 0.00 73 1013.0